#timestamp,LO_Frequency,Hit,StdDev 
1653879615.6,286047002.1,N
1653879635.4,286047001.2,N
1653879655.3,286047001.4,N
1653879675.1,286047003.0,N
1653879676.0,286047003.0,N
1653879695.8,286047005.7,Y
1653879715.7,286047004.7,P
1653879735.5,286047006.2,P
1653879755.3,286047006.6,P
1653879775.2,286047008.9,Y
1653879795.0,286047003.1,P
1653879795.9,286047003.1,P
1653879815.8,286047005.5,P
1653879835.6,286047007.8,Y
1653879855.4,286047006.5,P
1653879875.3,286047012.4,P
1653879895.1,286047012.0,P
1653879915.9,286047011.9,Y
1653879935.7,286047001.4,P
1653879955.5,286047003.4,N
1653879975.4,286047004.3,N
1653879995.2,286047007.6,N
1653880015.0,286047007.3,N
1653880015.9,286047007.3,N
1653880035.8,286047007.1,N
1653880055.6,286047007.8,Y
1653880075.5,286047011.9,P
1653880095.3,286047001.7,N
1653880115.1,286047002.8,N
1653880135.9,286047002.4,N
1653880155.7,286046998.6,N
1653880175.5,286046997.2,N
1653880195.4,286046998.7,N
1653880215.2,286047000.2,N
1653880235.1,286047000.0,N
1653880236.0,286047000.0,N
1653880255.8,286047000.2,N
1653880275.6,286047000.5,N
1653880295.5,286046999.5,N
1653880315.3,286046998.4,N
1653880335.1,286046998.5,N
1653880355.9,286046997.1,N
1653880375.7,286046993.4,N
1653880395.6,286046995.5,N
1653880415.4,286046998.4,N
1653880435.2,286047001.1,N
1653880455.1,286046996.6,N
1653880456.0,286046996.6,N
1653880475.8,286046998.7,N
1653880495.6,286046996.8,N
1653880515.5,286046996.2,N
1653880535.3,286046995.4,N
1653880555.1,286046994.2,N
1653880575.9,286046992.8,N
1653880595.7,286046991.3,N
1653880615.6,286046993.1,N
1653880635.4,286046992.7,N
1653880655.2,286046990.8,Y
1653880675.1,286046995.0,P
1653880676.0,286046995.0,P
1653880695.8,286046998.4,N
1653880715.7,286046996.7,N
1653880735.5,286046997.6,N
1653880755.3,286046997.4,N
1653880775.2,286046998.7,N
1653880795.9,286046997.8,N
1653880815.7,286046995.5,Y
1653880835.6,286047001.5,P
1653880855.4,286047001.6,N
1653880875.3,286047000.7,N
1653880895.1,286047000.8,N
1653880896.0,286047000.8,N
1653880915.8,286047000.3,N
1653880935.7,286047001.5,N
1653880955.5,286047003.1,N
1653880975.3,286047002.3,N
1653880995.2,286047001.5,N
1653881015.0,286047000.1,N
1653881015.9,286047000.1,N
1653881035.8,286047000.4,N
1653881055.6,286047000.6,N
1653881075.4,286046999.7,N
1653881095.3,286047002.5,N
1653881115.1,286047005.8,Y
1653881135.9,286047003.7,P
1653881155.7,286047003.3,N
1653881175.5,286047005.5,P
1653881195.4,286047007.2,Y
1653881215.2,286047005.0,P
1653881235.1,286047009.2,P
1653881236.0,286047009.2,P
1653881255.8,286047009.1,Y
1653881275.6,286047002.2,P
1653881295.5,286047003.3,N
1653881315.3,286047004.5,N
1653881335.2,286047008.5,Y
1653881355.9,286047004.9,P
1653881375.7,286047006.1,P
1653881395.6,286047008.5,P
1653881415.4,286047008.2,Y
1653881435.2,286047003.7,P
1653881455.1,286047000.1,N
1653881456.0,286047000.1,N
1653881475.8,286047001.1,N
1653881495.7,286047000.9,N
1653881515.5,286047000.4,N
1653881535.3,286047002.1,N
1653881555.2,286047003.2,N
1653881575.0,286047004.6,N
1653881575.9,286047004.6,N
1653881595.8,286047007.5,Y
1653881615.6,286047005.1,P
1653881635.4,286047005.0,P
1653881655.3,286047005.1,P
1653881675.1,286047005.0,Y
1653881695.9,286046999.9,P
1653881715.7,286047001.1,N
1653881735.5,286046998.5,N
1653881755.4,286047000.3,N
1653881775.2,286047000.9,N
1653881795.0,286047000.3,N
1653881796.0,286047000.3,N
1653881815.8,286046997.4,N
1653881835.6,286046999.1,N
1653881855.5,286046998.7,N
1653881875.3,286047000.6,N
1653881895.1,286047000.3,N
1653881915.9,286047000.0,N
1653881935.7,286047005.4,Y
1653881955.6,286047005.7,P
1653881975.4,286047008.6,P
1653881995.2,286047010.8,P
1653882015.1,286047007.7,N
1653882016.0,286047007.7,N
1653882035.8,286047010.9,Y
1653882055.6,286047006.7,P
1653882075.5,286047007.5,P
1653882095.3,286047006.9,P
1653882115.2,286047007.4,Y
1653882135.9,286047000.2,P
1653882155.7,286047002.5,N
1653882205.6,286047002.9,E
1653882215.5,286047005.7,N
1653882235.4,286047001.3,P
1653882255.2,286047005.6,N
1653882275.0,286047004.5,N
1653882275.9,286047004.5,N
1653882295.8,286047007.6,Y
1653882315.6,286047001.8,P
1653882335.4,286047003.4,N
1653882355.3,286047004.4,P
1653882375.1,286047004.0,Y
1653882395.9,286046998.2,P
1653882415.7,286047000.4,N
1653882435.5,286047000.0,N
1653882455.4,286046995.2,N
1653882475.2,286046985.6,Y
1653882495.1,286046978.6,P
1653882496.0,286046978.6,N
1653882515.8,286046970.5,P
1653882535.6,286046956.5,Y
1653882555.5,286046965.9,P
1653882575.3,286046959.4,P
1653882595.1,286046955.7,P
1653882615.9,286046954.7,Y
1653882635.7,286046987.8,P
1653882655.6,286046989.4,N
1653882675.4,286046989.8,N
1653882695.2,286046992.0,N
1653882715.1,286046996.7,N
1653882716.0,286046996.7,N
1653882735.8,286046999.5,N
1653882755.6,286046996.9,N
1653882775.5,286047001.0,N
1653882795.3,286046998.0,N
1653882815.2,286046994.3,N
1653882835.9,286046993.6,N
1653882855.7,286046996.6,N
1653882875.6,286046998.6,N
1653882895.4,286047004.2,N
1653882915.2,286047005.7,N
1653882935.1,286047006.2,N
1653882936.0,286047006.2,N
1653882955.8,286047009.0,N
1653882975.7,286047007.8,N
1653882995.5,286047009.9,N
1653883015.3,286047014.0,N
1653883035.2,286047010.9,N
1653883055.9,286047011.5,N
1653883075.7,286047013.9,N
1653883095.6,286047016.8,N
1653883115.4,286047015.3,N
1653883135.3,286047009.5,N
1653883155.1,286047010.2,N
1653883156.0,286047010.2,N
1653883175.8,286047011.9,N
1653883195.7,286047007.7,N
